SCP
0 0 0 0 0 0 0 0 0 0 0 0 0 0 0 0 0 0 0 0 0 0 0 0 0 0 0 0 0 0 0 0 0 0 0 0 0 0 0 0 0 0 0 0
0 0 0 0 0 0 0 0 0 0 0 0 0 0 0 0 0 0 0 0 0 0 0 0 0 0 0 0 0 0 0 0 0 0 0 0 0 0 0 0 0 0 0 0
0 0 0 0 0 0 0 0 0 0 0 0 0 0 0 0 0 0 0 0 0 0 0 0 0 0 0 0 0 0 0 0 0 0 0 0 0 0 0 0 0 0 0 0
0 0 0 0 0 0 0 0 0 0 0 0 0 -0 0 0 0 0 0 0 0 0 0 0 0 0 0 0 0 0 0 0 0 0 0 0 0 0 0 0 0 0 0 0
0 0 0 0 0 0 0 0 0 0 0 0 0 0 0 0 0 0 0 0 0 0 0 0 0 0 0 0 0 0 0 0 0 0 0 0 0 0 0 0 0 0 0 0
0 0 0 0 0 0 0 0 0 0 0 0 0 0 0 0 0 0 0 0 0 0 0 0 0 0 0 0 0 0 0 0 0 0 0 0 0 0 0 0 0 0 0 0
0 0 0 0 0 0 0 0 0 0 0 0 0 0 0 0 0 0 0 0 0 0 0 0 0 0 0 0 0 0 0 0 0 0 0 0 0 0 0 0 0 0 0 0
0 0 0 0 0 0 0 0 0 0 0 0 0 0 0 0 0 0 0 0 0 0 0 0 0 0 0 0 0 0 0 0 0 0 0 0 0 0 0 0 0 0 0 0
0 0 0 0 0 0 0 0 0 0 0 0 0 0 0 0 0 0 0 0 0 0 0 0 0 0 0 0 0 0 0 0 0 0 0 0 0 0 0 0 0 0 0 0
0 0 0 0 0 0 0 0 0 0 0 0 0 0 0 0 0 0 0 0 0 0 0 0 0 0 0 0 0 0 0 0 0 0 0 0 0 0 0 0 0 0 0 0
0 0 0 0 0 0 0 0 0 0 0 0 0 0 0 0 0 0 0 0 0 0 0 0 0 0 0 0 0 0 0 0 0 0 0 0 0 0 0 0 0 0 0 0
0 0 0 0 0 0 0 0 0 0 0 0 0 0 0 0 0 0 0 0 0 0 0 0 0 0 0 0 0 0 0 0 0 0 0 0 0 0 0 0 0 0 0 0
0 0 0 0 0 0 0 0 0 0 0 0 0 0 0 0 0 0 0 0 0 0 0 0 0 0 0 0 0 0 0 0 0 0 0 0 0 0 0 0 0 0 0 0
0 0 0 0 0 0 0 0 0 0 0 0 0 0 0 0 0 0 0 0 0 0 0 0 0 0 0 0 0 0 0 0 0 0 0 0 0 0 0 0 0 0 0 0
0 0 0 0 0 0 0 0 0 0 0 0 0 0 0 0 0 0 0 0 0 0 0 0 0 0 0 0 0 0 0 0 0 0 0 0 0 0 0 0 0 0 0 0
0 0 0 0 0 0 0 0 0 0 0 0 0 0 0 0 0 0 0 0 0 0 0 0 0 0 0 0 0 0 0 0 0 0 0 0 0 0 0 0 0 0 0 0
0 0 0 0 0 0 0 0 0 0 0 0 0 0 0 0 0 0 0 0 0 0 0 0 0 0 0 0 0 0 0 0 0 0 0 0 0 0 0 0 0 0 0 0
0 0 0 0 0 0 0 0 0 0 0 0 0 0 0 0 0 0 0 0 0 0 0 0 0 0 0 0 0 0 0 0 0 0 0 0 0 0 0 0 0 0 0 0
0 0 0 0 0 0 0 0 0 0 0 0 0 0 0 0 0 0 0 0 0 0 0 0 0 0 0 0 0 0 0 0 0 0 0 0 0 0 0 0 0 0 0 0
0 0 0 0 0 0 0 0 0 0 0 0 0 0 0 0 0 0 0 0 0 0 0 0 0 0 0 0 0 0 0 0 0 0 0 0 0 0 0 0 0 0 0 0
0 0 0 0 0 0 0 0 0 0 0 0 0 0 0 0 0 0 0 0 0 0 0 0 0 0 0 0 0 0 0 0 0 0 0 0 0 0 0 0 0 0 0 0
0 0 0 0 0 0 0 0 0 0 0 0 0 0 0 0 0 0 0 0 0 0 0 0 0 0 0 0 0 0 0 0 0 0 0 0 0 0 0 0 0 0 0 0
0 0 0 0 0 0 0 0 0 0 0 0 0 0 0 0 0 0 0 0 0 0 0 0 0 0 0 0 0 0 0 0 0 0 0 0 0 0 0 0 0 0 0 0
-0 -0 -0 -0 -0 0 0 -0 -0 -0 -0 -0 -0 -0 0 0 0 0 0 0 0 0 0 0 0 0 0 0 0 0 0 0 0 0 0 0 0 0 0 0 0 0 0 0
0 -0 -0 -0 -0 -0 -0 -0 -0 -0 -0 -0 -0 -0 -0 -0 -0 -0 -0 -0 -0 -0 -0 0 0 0 0 0 0 0 0 0 0 0 0 0 0 0 0 0 0 0 0 0
0 -0 -0 -0 -0 -0 -0 -0 -0 -0 -0 -0 -0 -0 -0 -0 -0 -0 -0 -0 -0 -0 -0 0 0 0 0 0 0 0 0 0 0 0 0 0 0 0 0 0 0 0 0 0
Wind_Speed_500mb
24 10 23 38 30 33 26 32 35 42 23 18 33 39 31 38 51 43 60 66 73 74 68 68 74 72 71 77 79 77 75 74 70 73 73 71 67 60 57 54 52 48 44 35
8 28 36 18 22 16 21 24 40 36 27 20 21 29 19 17 39 63 59 68 79 56 51 59 72 73 74 81 82 79 79 76 75 77 74 70 65 63 58 57 57 54 47 41
37 15 34 26 22 21 33 23 32 34 26 10 10 16 23 21 58 62 71 80 80 57 52 57 72 74 74 85 88 83 80 78 75 77 74 71 68 67 68 70 66 59 52 47
34 40 37 31 37 20 45 20 23 26 14 16 9 17 18 12 16 20 55 71 65 51 45 53 69 70 75 78 80 80 80 79 74 76 81 85 86 83 79 70 63 61 57 53
16 11 14 26 37 21 23 6 5 7 12 12 11 16 14 20 18 26 23 69 72 49 47 61 66 69 67 70 77 79 81 80 77 77 81 84 84 80 72 68 67 64 59 56
33 6 5 7 6 0 6 1 7 6 4 19 22 23 9 16 20 13 19 55 62 39 32 44 53 59 63 68 74 78 82 82 80 81 83 85 83 83 81 79 74 67 62 59
11 37 7 10 5 3 6 5 7 7 4 25 23 24 36 12 16 21 24 49 49 41 38 37 53 64 66 72 75 78 82 83 84 84 82 84 84 86 89 86 78 70 68 65
9 14 34 17 31 16 17 18 11 15 21 42 9 18 12 19 24 52 60 72 37 37 35 39 50 58 65 72 73 77 80 84 87 85 82 82 83 88 91 92 84 78 72 65
15 18 8 14 7 18 11 12 7 6 4 8 24 25 16 16 23 24 36 32 34 36 37 42 50 56 65 68 70 73 76 83 87 85 85 85 84 88 95 92 86 79 73 69
9 17 16 7 8 5 7 2 4 3 5 16 42 32 35 13 36 20 12 22 32 33 38 40 49 57 65 64 61 69 77 84 86 87 87 90 87 87 92 92 89 83 77 70
12 13 17 13 16 18 3 8 8 3 11 19 29 30 9 12 5 17 16 21 26 31 35 41 46 55 65 62 65 71 78 83 89 92 92 92 90 89 92 93 90 84 76 70
8 4 14 31 14 10 15 30 27 22 36 8 21 53 4 19 14 19 21 25 23 37 34 39 43 48 59 65 69 72 77 83 87 94 93 93 93 90 91 92 89 82 75 67
12 6 10 16 28 12 12 10 22 24 23 39 36 48 15 39 15 13 14 24 32 39 45 45 52 61 62 66 68 74 81 84 89 92 95 97 97 95 93 92 87 81 73 65
21 17 28 32 37 26 25 38 24 27 23 45 49 66 67 54 51 49 60 58 60 62 62 65 66 66 71 75 80 84 86 85 86 89 95 99 99 98 93 86 83 78 70 65
15 19 39 56 56 58 63 64 58 55 50 43 53 54 54 61 43 52 60 65 51 55 72 71 69 71 78 79 84 88 88 89 86 89 92 97 97 93 86 77 80 75 70 64
20 21 28 41 53 58 63 64 62 69 70 70 70 68 67 66 83 73 84 84 63 72 77 70 67 69 71 79 85 87 92 90 86 86 90 93 93 91 81 76 78 75 68 61
19 16 14 35 43 49 43 68 71 67 63 68 59 79 84 70 66 73 79 71 68 66 80 71 76 69 74 64 64 72 81 84 83 83 85 90 91 90 80 76 81 77 68 59
39 40 30 36 34 48 42 48 67 69 67 71 69 69 64 66 94 79 70 75 80 76 80 89 85 81 68 53 50 56 71 75 78 81 85 86 88 82 77 80 81 72 64 56
47 45 27 26 37 48 16 41 50 48 63 63 54 58 63 76 68 60 89 92 80 87 96 97 85 76 62 54 51 53 61 69 77 81 84 85 84 79 79 83 77 68 58 50
54 55 41 37 29 34 26 45 52 53 28 27 42 46 46 41 27 36 89 89 64 64 62 56 59 57 48 48 51 50 56 68 75 80 81 80 78 77 77 81 75 68 58 45
17 36 48 45 34 27 12 19 18 17 26 37 43 35 29 21 19 42 41 49 53 50 43 54 55 54 48 45 47 53 56 66 71 74 77 79 76 74 76 78 75 64 53 59
25 17 14 19 22 28 37 20 23 16 47 48 50 48 49 44 46 54 59 56 51 48 44 46 56 53 53 50 51 57 65 63 70 74 78 76 77 80 85 82 71 62 59 51
8 10 10 12 18 33 29 30 18 20 35 38 37 42 42 53 55 57 65 72 63 52 52 53 56 60 58 54 57 63 66 66 72 73 74 76 79 84 84 80 72 61 57 51
19 44 18 21 2 37 53 52 41 62 54 47 42 48 51 55 66 80 82 84 83 81 85 81 72 68 67 67 70 69 71 71 76 74 75 78 87 89 85 79 67 63 54 52
23 40 28 47 44 48 56 51 58 72 73 71 70 63 62 67 76 69 68 77 76 75 59 61 64 63 66 71 72 76 81 79 79 76 79 88 95 92 86 74 69 63 56 47
24 30 28 35 47 47 62 77 73 75 70 62 65 75 66 59 59 70 64 76 76 84 87 89 89 85 84 81 78 79 83 84 82 85 89 103 104 99 87 79 69 60 51 47
Wind_Direction_500mb
189 186 212 221 212 233 253 264 264 264 262 179 232 242 246 256 271 257 260 261 261 260 264 251 236 225 226 225 224 227 228 226 221 221 222 225 230 230 234 235 239 243 246 253
218 225 230 251 259 278 272 275 271 279 286 200 249 254 251 251 256 260 260 267 266 262 251 243 229 219 221 222 221 225 229 228 225 226 227 230 233 233 236 237 240 242 244 249
223 200 217 235 245 253 245 244 259 264 286 221 303 271 255 242 245 258 262 262 265 258 244 237 213 217 220 219 222 224 228 229 227 227 228 228 230 232 232 235 238 239 240 244
251 242 246 247 255 223 266 241 264 265 284 250 159 282 230 234 240 231 248 264 264 257 244 230 216 217 224 224 225 225 226 229 228 228 229 230 233 234 238 240 240 237 239 241
219 174 197 232 239 221 262 152 248 279 268 309 253 276 230 185 233 240 245 257 269 266 253 220 221 225 229 224 222 221 224 228 229 229 232 235 235 237 239 238 236 238 239 241
259 138 230 231 72 162 124 317 233 240 201 254 207 218 213 201 214 226 227 252 262 261 229 213 220 223 223 220 220 220 221 223 226 229 233 236 237 235 231 233 235 237 239 241
225 236 166 141 169 165 194 154 291 287 185 256 181 226 244 208 186 190 212 233 249 216 221 217 213 211 215 217 218 220 221 223 226 228 234 239 239 235 234 237 237 237 238 241
229 277 183 178 209 169 183 182 175 235 261 277 166 251 242 204 219 218 221 242 229 205 217 225 220 218 216 218 221 222 223 224 226 229 234 240 240 238 236 236 236 238 241 243
205 248 49 159 158 162 177 196 200 242 54 310 264 271 298 243 232 218 216 194 193 200 222 224 223 224 222 222 227 226 227 226 228 230 233 238 240 240 238 236 236 237 238 240
259 261 186 141 57 286 199 175 109 224 263 243 277 284 272 217 252 226 190 208 216 229 236 233 232 233 231 230 236 233 231 231 230 231 234 238 240 241 239 237 235 235 237 238
230 219 247 120 199 192 155 246 228 271 184 238 267 273 267 132 100 183 208 230 245 230 232 245 243 238 240 242 241 237 234 234 234 235 236 237 239 241 239 237 235 235 235 235
235 253 235 231 239 216 218 226 202 226 238 234 238 262 283 274 154 156 179 194 242 268 263 252 240 244 245 244 241 242 240 240 242 238 236 236 239 241 240 236 233 231 232 235
3 340 325 296 289 245 219 222 248 255 253 250 248 259 210 267 214 219 196 234 239 246 248 243 251 249 246 249 246 248 248 248 244 240 237 237 237 239 239 235 231 229 229 233
154 227 237 242 247 283 276 284 257 255 250 252 250 261 276 266 275 279 278 280 272 269 258 262 259 254 258 261 259 256 252 250 246 242 239 237 237 238 238 235 229 228 228 232
163 228 223 234 248 259 262 263 262 270 270 263 274 267 267 274 271 270 275 276 276 276 277 268 266 265 266 262 259 254 254 252 248 243 240 238 236 238 238 233 227 226 228 233
179 243 215 229 233 240 248 254 256 250 249 246 252 268 262 263 271 274 270 271 281 276 274 272 272 268 263 266 262 260 256 252 247 243 239 235 233 236 234 230 224 224 227 232
193 205 216 247 231 235 237 237 245 251 246 246 248 245 254 259 255 262 271 281 275 273 274 272 272 272 279 274 266 263 259 250 244 238 235 233 234 234 232 227 220 221 225 231
232 228 236 251 244 230 227 233 228 237 240 242 242 249 254 252 258 263 270 272 278 278 284 280 280 283 284 276 265 255 248 244 241 237 234 232 231 230 228 222 217 219 223 230
230 237 246 242 237 250 249 222 216 225 241 247 257 253 252 260 265 277 269 263 265 273 277 280 282 285 281 271 260 249 240 237 233 231 229 229 228 225 221 215 213 217 223 232
233 233 238 238 247 251 239 233 251 256 261 252 242 249 251 250 254 252 259 270 275 275 279 282 287 283 269 265 250 241 236 232 229 228 226 225 224 221 216 211 212 214 220 227
223 228 235 238 250 261 256 277 327 242 259 249 269 279 286 281 331 346 328 312 297 290 288 295 290 279 269 265 251 242 237 235 233 228 225 221 216 214 208 210 212 213 219 227
248 214 212 243 246 257 8 340 246 350 4 6 359 351 343 339 338 342 336 335 332 328 323 318 307 290 274 265 256 250 245 238 232 228 224 220 212 204 200 207 209 216 219 221
266 2 329 325 331 325 306 295 285 359 347 331 332 328 346 331 334 335 326 321 319 316 315 310 305 304 287 271 261 255 250 242 233 228 222 216 208 200 201 203 208 208 215 221
304 299 287 292 282 317 313 304 294 321 333 328 317 306 312 306 300 302 301 297 293 296 297 294 289 288 282 277 267 258 252 243 236 226 220 212 202 198 200 200 200 211 216 220
291 308 292 285 284 298 300 313 324 318 314 315 310 302 300 296 293 295 301 296 298 298 297 294 286 286 287 282 263 256 251 243 235 226 217 207 200 200 198 197 205 208 211 216
271 274 285 291 300 294 300 309 311 308 313 309 316 317 309 299 304 300 301 290 287 285 288 287 283 279 277 275 265 253 248 243 235 223 212 203 199 195 194 197 196 201 206 207
Wind_Speed_850mb
24 10 23 38 30 33 26 32 35 42 23 18 33 39 31 38 51 43 60 66 73 74 68 68 74 72 71 77 79 77 75 74 70 73 73 71 67 60 57 54 52 48 44 35
8 28 36 18 22 16 21 24 40 36 27 20 21 29 19 17 39 63 59 68 79 56 51 59 72 73 74 81 82 79 79 76 75 77 74 70 65 63 58 57 57 54 47 41
37 15 34 26 22 21 33 23 32 34 26 10 10 16 23 21 58 62 71 80 80 57 52 57 72 74 74 85 88 83 80 78 75 77 74 71 68 67 68 70 66 59 52 47
34 40 37 31 37 20 45 20 23 26 14 16 9 17 18 12 16 20 55 71 65 51 45 53 69 70 75 78 80 80 80 79 74 76 81 85 86 83 79 70 63 61 57 53
16 11 14 26 37 21 23 6 5 7 12 12 11 16 14 20 18 26 23 69 72 49 47 61 66 69 67 70 77 79 81 80 77 77 81 84 84 80 72 68 67 64 59 56
33 6 5 7 6 0 6 1 7 6 4 19 22 23 9 16 20 13 19 55 62 39 32 44 53 59 63 68 74 78 82 82 80 81 83 85 83 83 81 79 74 67 62 59
11 37 7 10 5 3 6 5 7 7 4 25 23 24 36 12 16 21 24 49 49 41 38 37 53 64 66 72 75 78 82 83 84 84 82 84 84 86 89 86 78 70 68 65
9 14 34 17 31 16 17 18 11 15 21 42 9 18 12 19 24 52 60 72 37 37 35 39 50 58 65 72 73 77 80 84 87 85 82 82 83 88 91 92 84 78 72 65
15 18 8 14 7 18 11 12 7 6 4 8 24 25 16 16 23 24 36 32 34 36 37 42 50 56 65 68 70 73 76 83 87 85 85 85 84 88 95 92 86 79 73 69
9 17 16 7 8 5 7 2 4 3 5 16 42 32 35 13 36 20 12 22 32 33 38 40 49 57 65 64 61 69 77 84 86 87 87 90 87 87 92 92 89 83 77 70
12 13 17 13 16 18 3 8 8 3 11 19 29 30 9 12 5 17 16 21 26 31 35 41 46 55 65 62 65 71 78 83 89 92 92 92 90 89 92 93 90 84 76 70
8 4 14 31 14 10 15 30 27 22 36 8 21 53 4 19 14 19 21 25 23 37 34 39 43 48 59 65 69 72 77 83 87 94 93 93 93 90 91 92 89 82 75 67
12 6 10 16 28 12 12 10 22 24 23 39 36 48 15 39 15 13 14 24 32 39 45 45 52 61 62 66 68 74 81 84 89 92 95 97 97 95 93 92 87 81 73 65
21 17 28 32 37 26 25 38 24 27 23 45 49 66 67 54 51 49 60 58 60 62 62 65 66 66 71 75 80 84 86 85 86 89 95 99 99 98 93 86 83 78 70 65
15 19 39 56 56 58 63 64 58 55 50 43 53 54 54 61 43 52 60 65 51 55 72 71 69 71 78 79 84 88 88 89 86 89 92 97 97 93 86 77 80 75 70 64
20 21 28 41 53 58 63 64 62 69 70 70 70 68 67 66 83 73 84 84 63 72 77 70 67 69 71 79 85 87 92 90 86 86 90 93 93 91 81 76 78 75 68 61
19 16 14 35 43 49 43 68 71 67 63 68 59 79 84 70 66 73 79 71 68 66 80 71 76 69 74 64 64 72 81 84 83 83 85 90 91 90 80 76 81 77 68 59
39 40 30 36 34 48 42 48 67 69 67 71 69 69 64 66 94 79 70 75 80 76 80 89 85 81 68 53 50 56 71 75 78 81 85 86 88 82 77 80 81 72 64 56
47 45 27 26 37 48 16 41 50 48 63 63 54 58 63 76 68 60 89 92 80 87 96 97 85 76 62 54 51 53 61 69 77 81 84 85 84 79 79 83 77 68 58 50
54 55 41 37 29 34 26 45 52 53 28 27 42 46 46 41 27 36 89 89 64 64 62 56 59 57 48 48 51 50 56 68 75 80 81 80 78 77 77 81 75 68 58 45
17 36 48 45 34 27 12 19 18 17 26 37 43 35 29 21 19 42 41 49 53 50 43 54 55 54 48 45 47 53 56 66 71 74 77 79 76 74 76 78 75 64 53 59
25 17 14 19 22 28 37 20 23 16 47 48 50 48 49 44 46 54 59 56 51 48 44 46 56 53 53 50 51 57 65 63 70 74 78 76 77 80 85 82 71 62 59 51
8 10 10 12 18 33 29 30 18 20 35 38 37 42 42 53 55 57 65 72 63 52 52 53 56 60 58 54 57 63 66 66 72 73 74 76 79 84 84 80 72 61 57 51
19 44 18 21 2 37 53 52 41 62 54 47 42 48 51 55 66 80 82 84 83 81 85 81 72 68 67 67 70 69 71 71 76 74 75 78 87 89 85 79 67 63 54 52
23 40 28 47 44 48 56 51 58 72 73 71 70 63 62 67 76 69 68 77 76 75 59 61 64 63 66 71 72 76 81 79 79 76 79 88 95 92 86 74 69 63 56 47
24 30 28 35 47 47 62 77 73 75 70 62 65 75 66 59 59 70 64 76 76 84 87 89 89 85 84 81 78 79 83 84 82 85 89 103 104 99 87 79 69 60 51 47
Wind_Direction_850mb
189 186 212 221 212 233 253 264 264 264 262 179 232 242 246 256 271 257 260 261 261 260 264 251 236 225 226 225 224 227 228 226 221 221 222 225 230 230 234 235 239 243 246 253
218 225 230 251 259 278 272 275 271 279 286 200 249 254 251 251 256 260 260 267 266 262 251 243 229 219 221 222 221 225 229 228 225 226 227 230 233 233 236 237 240 242 244 249
223 200 217 235 245 253 245 244 259 264 286 221 303 271 255 242 245 258 262 262 265 258 244 237 213 217 220 219 222 224 228 229 227 227 228 228 230 232 232 235 238 239 240 244
251 242 246 247 255 223 266 241 264 265 284 250 159 282 230 234 240 231 248 264 264 257 244 230 216 217 224 224 225 225 226 229 228 228 229 230 233 234 238 240 240 237 239 241
219 174 197 232 239 221 262 152 248 279 268 309 253 276 230 185 233 240 245 257 269 266 253 220 221 225 229 224 222 221 224 228 229 229 232 235 235 237 239 238 236 238 239 241
259 138 230 231 72 162 124 317 233 240 201 254 207 218 213 201 214 226 227 252 262 261 229 213 220 223 223 220 220 220 221 223 226 229 233 236 237 235 231 233 235 237 239 241
225 236 166 141 169 165 194 154 291 287 185 256 181 226 244 208 186 190 212 233 249 216 221 217 213 211 215 217 218 220 221 223 226 228 234 239 239 235 234 237 237 237 238 241
229 277 183 178 209 169 183 182 175 235 261 277 166 251 242 204 219 218 221 242 229 205 217 225 220 218 216 218 221 222 223 224 226 229 234 240 240 238 236 236 236 238 241 243
205 248 49 159 158 162 177 196 200 242 54 310 264 271 298 243 232 218 216 194 193 200 222 224 223 224 222 222 227 226 227 226 228 230 233 238 240 240 238 236 236 237 238 240
259 261 186 141 57 286 199 175 109 224 263 243 277 284 272 217 252 226 190 208 216 229 236 233 232 233 231 230 236 233 231 231 230 231 234 238 240 241 239 237 235 235 237 238
230 219 247 120 199 192 155 246 228 271 184 238 267 273 267 132 100 183 208 230 245 230 232 245 243 238 240 242 241 237 234 234 234 235 236 237 239 241 239 237 235 235 235 235
235 253 235 231 239 216 218 226 202 226 238 234 238 262 283 274 154 156 179 194 242 268 263 252 240 244 245 244 241 242 240 240 242 238 236 236 239 241 240 236 233 231 232 235
3 340 325 296 289 245 219 222 248 255 253 250 248 259 210 267 214 219 196 234 239 246 248 243 251 249 246 249 246 248 248 248 244 240 237 237 237 239 239 235 231 229 229 233
154 227 237 242 247 283 276 284 257 255 250 252 250 261 276 266 275 279 278 280 272 269 258 262 259 254 258 261 259 256 252 250 246 242 239 237 237 238 238 235 229 228 228 232
163 228 223 234 248 259 262 263 262 270 270 263 274 267 267 274 271 270 275 276 276 276 277 268 266 265 266 262 259 254 254 252 248 243 240 238 236 238 238 233 227 226 228 233
179 243 215 229 233 240 248 254 256 250 249 246 252 268 262 263 271 274 270 271 281 276 274 272 272 268 263 266 262 260 256 252 247 243 239 235 233 236 234 230 224 224 227 232
193 205 216 247 231 235 237 237 245 251 246 246 248 245 254 259 255 262 271 281 275 273 274 272 272 272 279 274 266 263 259 250 244 238 235 233 234 234 232 227 220 221 225 231
232 228 236 251 244 230 227 233 228 237 240 242 242 249 254 252 258 263 270 272 278 278 284 280 280 283 284 276 265 255 248 244 241 237 234 232 231 230 228 222 217 219 223 230
230 237 246 242 237 250 249 222 216 225 241 247 257 253 252 260 265 277 269 263 265 273 277 280 282 285 281 271 260 249 240 237 233 231 229 229 228 225 221 215 213 217 223 232
233 233 238 238 247 251 239 233 251 256 261 252 242 249 251 250 254 252 259 270 275 275 279 282 287 283 269 265 250 241 236 232 229 228 226 225 224 221 216 211 212 214 220 227
223 228 235 238 250 261 256 277 327 242 259 249 269 279 286 281 331 346 328 312 297 290 288 295 290 279 269 265 251 242 237 235 233 228 225 221 216 214 208 210 212 213 219 227
248 214 212 243 246 257 8 340 246 350 4 6 359 351 343 339 338 342 336 335 332 328 323 318 307 290 274 265 256 250 245 238 232 228 224 220 212 204 200 207 209 216 219 221
266 2 329 325 331 325 306 295 285 359 347 331 332 328 346 331 334 335 326 321 319 316 315 310 305 304 287 271 261 255 250 242 233 228 222 216 208 200 201 203 208 208 215 221
304 299 287 292 282 317 313 304 294 321 333 328 317 306 312 306 300 302 301 297 293 296 297 294 289 288 282 277 267 258 252 243 236 226 220 212 202 198 200 200 200 211 216 220
291 308 292 285 284 298 300 313 324 318 314 315 310 302 300 296 293 295 301 296 298 298 297 294 286 286 287 282 263 256 251 243 235 226 217 207 200 200 198 197 205 208 211 216
271 274 285 291 300 294 300 309 311 308 313 309 316 317 309 299 304 300 301 290 287 285 288 287 283 279 277 275 265 253 248 243 235 223 212 203 199 195 194 197 196 201 206 207